Hourly Data Report for August 23, 2013

All times are specified in Local Standard Time (LST). Add 1 hour to adjust for Daylight Saving Time where and when it is observed.

VICTORIA INTL A
BRITISH COLUMBIA

48°38'50.000" N
123°25'33.000" W
19.50 m
1018621
71799
YYJ

Download Data

Hourly Data (August 2013)
Hourly Data Report for August 23, 2013
Temp Definition
°C
Dew Point Temp Definition
°C
Rel Hum Definition
%
Wind Dir Definition
10's deg

Wind Spd Definition
km/h
Visibility Definition
km
Stn Press Definition
kPa
Hmdx Definition


Wind Chill Definition


Weather Definition


TIME
00:00 Legend Double Dagger 11.7 10.3 91 11 12 48.3 100.69     LegendNANA
01:00 Legend Double Dagger 12.0 9.9 87 1 3 48.3 100.69     Mostly Cloudy
02:00 Legend Double Dagger 11.6 10.2 91 13 6 48.3 100.69     LegendNANA
03:00 Legend Double Dagger 11.9 10.3 90 10 4 48.3 100.71     LegendNANA
04:00 Legend Double Dagger 11.7 9.8 88 4 3 48.3 100.71     Mostly Cloudy
05:00 Legend Double Dagger 11.3 9.6 89 16 4 48.3 100.70     LegendNANA
06:00 Legend Double Dagger 11.5 10.3 92 19 1 48.3 100.71     LegendNANA
07:00 Legend Double Dagger 14.6 11.8 83 6 4 48.3 100.74     Mostly Cloudy
08:00 Legend Double Dagger 15.0 11.8 81 4 4 48.3 100.78     LegendNANA
09:00 Legend Double Dagger 18.7 12.5 67 8 12 48.3 100.79     LegendNANA
10:00 Legend Double Dagger 17.6 12.4 71 9 16 48.3 100.82     Mainly Clear
11:00 Legend Double Dagger 17.8 12.3 70 13 15 48.3 100.82     LegendNANA
12:00 Legend Double Dagger 20.5 13.1 62 1 4 48.3 100.82     LegendNANA
13:00 Legend Double Dagger 24.0 11.9 46 25 20 48.3 100.85 26   Mostly Cloudy
14:00 Legend Double Dagger 22.4 11.9 51 23 16 48.3 100.88 25   LegendNANA
15:00 Legend Double Dagger 22.6 12.4 52 27 21 48.3 100.89 25   LegendNANA
16:00 Legend Double Dagger 17.9 11.8 67 13 19 48.3 100.85     Mostly Cloudy
17:00 Legend Double Dagger 15.4 11.6 78 12 22 48.3 100.87     LegendNANA
18:00 Legend Double Dagger 16.7 12.3 75 13 14 48.3 100.85     LegendNANA
19:00 Legend Double Dagger 17.8 13.0 73 33 7 48.3 100.88     Mostly Cloudy
20:00 Legend Double Dagger 16.8 14.7 87 23 1 48.3 100.94     LegendNANA
21:00 Legend Double Dagger 17.5 14.1 80 21 10 48.3 100.96     LegendNANA
22:00 Legend Double Dagger 16.3 14.7 90 15 6 48.3 100.94     Mostly Cloudy
23:00 Legend Double Dagger 16.3 14.3 88 13 3 48.3 100.93     LegendNANA

Notes on Data Quality.

Legend

  • E = Estimated
  • M = Missing
  • NA = Not Available
  • ‡ = Partner data that is not subject to review by the National Climate Archives
Date modified: